FW7539 Weather Reports


Display with metric or nautical units.
time (UTC)temp
F
wind
direction
speed
MPH
gust
MPH
rain 1hr
in
rain 24hr
in
rain mn
in
humidity
%
barometer
mb
20260831231948 88 157 1.0 5.0 0.00 0.00 0.00 59 1015.9
20260831231448 88 168 2.0 7.0 0.00 0.00 0.00 58 1016.0
20260831230948 89 172 3.0 7.0 0.00 0.00 0.00 57 1016.0
20260831230449 89 195 3.0 7.0 0.00 0.00 0.00 56 1016.0
20260831225948 89 205 2.0 5.0 0.00 0.00 0.00 57 1016.0
20260831225448 90 189 1.0 5.0 0.00 0.00 0.00 56 1016.1
20260831224948 90 184 2.0 6.0 0.00 0.00 0.00 55 1016.1
20260831224448 90 211 2.0 6.0 0.00 0.00 0.00 55 1016.1
20260831223948 90 226 1.0 5.0 0.00 0.00 0.00 55 1016.2
20260831223449 90 229 2.0 8.0 0.00 0.00 0.00 55 1016.2
20260831222948 90 208 2.0 8.0 0.00 0.00 0.00 54 1016.3
20260831222509 90 176 2.0 5.0 0.00 0.00 0.00 54 1016.3
20260831222009 91 229 2.0 5.0 0.00 0.00 0.00 53 1016.4
20260831221448 91 240 2.0 6.0 0.00 0.00 0.00 53 1016.5
20260831221009 91 216 1.0 6.0 0.00 0.00 0.00 53 1016.7
20260831220448 91 178 2.0 4.0 0.00 0.00 0.00 53 1016.6
20260831215948 92 214 2.0 5.0 0.00 0.00 0.00 51 1016.8
20260831215448 92 229 2.0 5.0 0.00 0.00 0.00 50 1016.8
20260831215009 92 236 1.0 4.0 0.00 0.00 0.00 51 1016.9
20260831214448 92 250 2.0 7.0 0.00 0.00 0.00 49 1016.9
20260831213948 92 251 2.0 7.0 0.00 0.00 0.00 49 1016.9
20260831213448 93 257 2.0 4.0 0.00 0.00 0.00 47 1017.0
20260831212948 93 266 1.0 4.0 0.00 0.00 0.00 49 1017.0
20260831212448 93 217 2.0 7.0 0.00 0.00 0.00 51 1016.9
20260831211948 93 210 2.0 7.0 0.00 0.00 0.00 49 1017.1
20260831211448 93 159 2.0 5.0 0.00 0.00 0.00 52 1017.1
20260831210948 93 177 2.0 5.0 0.00 0.00 0.00 49 1017.1
20260831210509 93 212 2.0 4.0 0.00 0.00 0.00 50 1017.2
20260831210009 93 216 2.0 4.0 0.00 0.00 0.00 50 1017.2
20260831205448 93 230 2.0 5.0 0.00 0.00 0.00 49 1017.2
20260831204948 92 194 1.0 9.0 0.00 0.00 0.00 50 1017.4
20260831204448 92 148 1.0 9.0 0.00 0.00 0.00 49 1017.4
20260831203948 92 159 2.0 4.0 0.00 0.00 0.00 49 1017.4
20260831203449 92 199 2.0 7.0 0.00 0.00 0.00 49 1017.4
20260831203009 93 216 2.0 7.0 0.00 0.00 0.00 48 1017.4
20260831202448 93 228 2.0 7.0 0.00 0.00 0.00 48 1017.5
20260831201948 94 252 2.0 6.0 0.00 0.00 0.00 47 1017.5
20260831201448 93 256 2.0 8.0 0.00 0.00 0.00 47 1017.5
20260831200948 93 241 2.0 8.0 0.00 0.00 0.00 46 1017.6
20260831200448 93 238 2.0 8.0 0.00 0.00 0.00 47 1017.7
20260831195948 93 236 2.0 6.0 0.00 0.00 0.00 51 1017.7
20260831195448 93 245 2.0 6.0 0.00 0.00 0.00 49 1017.9
20260831194948 92 257 2.0 6.0 0.00 0.00 0.00 48 1017.9
20260831194448 92 227 2.0 8.0 0.00 0.00 0.00 53 1018.0
20260831193949 92 194 2.0 8.0 0.00 0.00 0.00 50 1018.1
20260831193448 92 177 2.0 6.0 0.00 0.00 0.00 51 1018.1
20260831192948 92 232 2.0 6.0 0.00 0.00 0.00 52 1018.2
20260831192448 91 265 2.0 7.0 0.00 0.00 0.00 51 1018.2
20260831191948 92 259 2.0 7.0 0.00 0.00 0.00 52 1018.2
20260831191448 91 249 2.0 5.0 0.00 0.00 0.00 54 1018.2
20260831190948 92 250 2.0 12.0 0.00 0.00 0.00 52 1018.3
20260831190448 91 262 2.0 12.0 0.00 0.00 0.00 53 1018.4
20260831185948 91 261 2.0 8.0 0.00 0.00 0.00 53 1018.4
20260831185448 90 242 2.0 8.0 0.00 0.00 0.00 53 1018.5
20260831184948 90 234 2.0 6.0 0.00 0.00 0.00 55 1018.6
20260831184448 89 242 2.0 7.0 0.00 0.00 0.00 55 1018.5
20260831183948 90 237 3.0 9.0 0.00 0.00 0.00 56 1018.6
20260831183448 90 235 3.0 9.0 0.00 0.00 0.00 55 1018.6
20260831183010 90 222 3.0 8.0 0.00 0.00 0.00 54 1018.7
20260831182448 90 158 2.0 8.0 0.00 0.00 0.00 57 1018.7
20260831181948 89 176 2.0 8.0 0.00 0.00 0.00 58 1018.7
20260831181448 89 228 2.0 5.0 0.00 0.00 0.00 57 1018.7
20260831180948 90 290 2.0 5.0 0.00 0.00 0.00 56 1018.8
20260831180449 90 299 2.0 5.0 0.00 0.00 0.00 56 1018.9
20260831175948 90 287 2.0 7.0 0.00 0.00 0.00 57 1018.9
20260831175449 89 256 2.0 7.0 0.00 0.00 0.00 58 1018.8
20260831174948 89 255 2.0 6.0 0.00 0.00 0.00 59 1019.0
20260831174509 89 253 3.0 9.0 0.00 0.00 0.00 58 1018.9
20260831173948 90 250 3.0 9.0 0.00 0.00 0.00 59 1019.0
20260831173448 90 242 3.0 10.0 0.00 0.00 0.00 58 1018.9
20260831172948 89 240 3.0 10.0 0.00 0.00 0.00 58 1019.1
20260831172448 89 236 2.0 6.0 0.00 0.00 0.00 60 1019.1
20260831171948 89 230 2.0 7.0 0.00 0.00 0.00 59 1019.1
20260831171449 89 239 2.0 7.0 0.00 0.00 0.00 59 1019.0
20260831170948 89 249 2.0 6.0 0.00 0.00 0.00 57 1019.0
20260831170448 89 264 2.0 5.0 0.00 0.00 0.00 58 1019.1
20260831165948 90 174 2.0 6.0 0.00 0.00 0.00 58 1019.1
20260831165449 89 160 2.0 8.0 0.00 0.00 0.00 61 1019.2
20260831164949 89 203 2.0 8.0 0.00 0.00 0.00 61 1019.2
20260831164448 88 217 2.0 5.0 0.00 0.00 0.00 62 1019.3
20260831163948 88 239 2.0 8.0 0.00 0.00 0.00 62 1019.3
20260831163448 87 264 3.0 8.0 0.00 0.00 0.00 62 1019.4
20260831162948 87 265 3.0 6.0 0.00 0.00 0.00 62 1019.4
20260831162448 87 235 2.0 8.0 0.00 0.00 0.00 63 1019.4
20260831162009 87 235 2.0 8.0 0.00 0.00 0.00 64 1019.4
20260831161509 87 237 2.0 6.0 0.00 0.00 0.00 65 1019.3
20260831160948 87 235 2.0 6.0 0.00 0.00 0.00 64 1019.3
20260831160449 87 242 2.0 6.0 0.00 0.00 0.00 64 1019.4
20260831155949 87 227 2.0 6.0 0.00 0.00 0.00 64 1019.4
20260831155448 86 226 2.0 7.0 0.00 0.00 0.00 65 1019.4
20260831154948 86 227 3.0 7.0 0.00 0.00 0.00 64 1019.4
20260831154509 86 228 2.0 6.0 0.00 0.00 0.00 66 1019.4
20260831153948 86 233 2.0 7.0 0.00 0.00 0.00 66 1019.4
20260831153449 85 214 2.0 7.0 0.00 0.00 0.00 66 1019.3
20260831152949 85 202 2.0 6.0 0.00 0.00 0.00 66 1019.3
20260831152448 85 214 2.0 5.0 0.00 0.00 0.00 66 1019.3
20260831151948 85 199 2.0 7.0 0.00 0.00 0.00 67 1019.3
20260831151448 85 192 2.0 7.0 0.00 0.00 0.00 68 1019.4
20260831150948 84 217 1.0 4.0 0.00 0.00 0.00 68 1019.3
20260831150509 84 181 2.0 8.0 0.00 0.00 0.00 71 1019.3
20260831145950 83 169 3.0 8.0 0.00 0.00 0.00 70 1019.3
20260831145449 82 181 2.0 7.0 0.00 0.00 0.00 71 1019.3
20260831144949 81 166 2.0 7.0 0.00 0.00 0.00 71 1019.3
20260831144448 81 149 2.0 7.0 0.00 0.00 0.00 72 1019.3
20260831143948 80 154 2.0 7.0 0.00 0.00 0.00 72 1019.3
20260831143509 80 151 1.0 7.0 0.00 0.00 0.00 74 1019.3
20260831142948 80 173 1.0 5.0 0.00 0.00 0.00 74 1019.2
20260831142509 80 207 2.0 5.0 0.00 0.00 0.00 73 1019.2
20260831141948 79 176 2.0 5.0 0.00 0.00 0.00 74 1019.2
20260831141509 79 164 2.0 5.0 0.00 0.00 0.00 74 1019.1
20260831140949 79 205 2.0 5.0 0.00 0.00 0.00 74 1019.2
20260831140449 78 233 2.0 4.0 0.00 0.00 0.00 74 1019.1
20260831135949 78 251 1.0 4.0 0.00 0.00 0.00 75 1019.2
20260831135449 78 280 0.0 3.0 0.00 0.00 0.00 75 1019.2
20260831134948 78 256 0.0 3.0 0.00 0.00 0.00 76 1019.2
20260831134448 78 266 1.0 3.0 0.00 0.00 0.00 76 1019.1
20260831133948 78 275 1.0 3.0 0.00 0.00 0.00 76 1019.1
20260831133449 78 228 1.0 8.0 0.00 0.00 0.00 76 1019.1
20260831133010 78 222 1.0 8.0 0.00 0.00 0.00 75 1019.2
20260831132448 78 242 1.0 4.0 0.00 0.00 0.00 76 1019.1
20260831131948 77 244 1.0 4.0 0.00 0.00 0.00 76 1019.1
20260831131448 77 230 1.0 3.0 0.00 0.00 0.00 78 1019.0
20260831130948 77 234 1.0 3.0 0.00 0.00 0.00 77 1019.0
20260831130448 77 271 1.0 2.0 0.00 0.00 0.00 78 1019.1
20260831125949 76 290 1.0 2.0 0.00 0.00 0.00 78 1019.0
20260831125449 76 263 1.0 4.0 0.00 0.00 0.00 78 1018.9
20260831125009 76 256 1.0 4.0 0.00 0.00 0.00 78 1018.8
20260831124448 75 266 1.0 4.0 0.00 0.00 0.00 79 1018.8
20260831124009 75 246 1.0 4.0 0.00 0.00 0.00 79 1018.8
20260831123509 75 238 1.0 3.0 0.00 0.00 0.00 81 1018.8
20260831122948 74 238 1.0 3.0 0.00 0.00 0.00 81 1018.9
20260831122448 74 235 1.0 3.0 0.00 0.00 0.00 81 1018.8
20260831121949 73 225 0.0 3.0 0.00 0.00 0.00 82 1018.7
20260831121449 73 96 0.0 1.0 0.00 0.00 0.00 83 1018.7
20260831120949 73 103 0.0 1.0 0.00 0.00 0.00 83 1018.7
20260831120449 72 102 0.0 1.0 0.00 0.00 0.00 83 1018.8
20260831115949 72 101 0.0 1.0 0.00 0.00 0.00 83 1018.7
20260831115448 72 136 0.0 1.0 0.00 0.00 0.00 83 1018.7
20260831114948 72 194 0.0 1.0 0.00 0.00 0.00 83 1018.7
20260831114449 72 221 0.0 1.0 0.00 0.00 0.00 83 1018.6
20260831113949 72 221 0.0 1.0 0.00 0.00 0.00 83 1018.6
20260831113449 71 221 0.0 1.0 0.00 0.00 0.00 84 1018.5
20260831112949 71 221 0.0 1.0 0.00 0.00 0.00 84 1018.5
20260831112449 71 0 0.0 0.0 0.00 0.00 0.00 84 1018.4
20260831111949 71 221 0.0 1.0 0.00 0.00 0.00 84 1018.5
20260831111449 71 221 0.0 1.0 0.00 0.00 0.00 84 1018.4
20260831111010 71 0 0.0 0.0 0.00 0.00 0.00 84 1018.3
20260831110448 71 0 0.0 0.0 0.00 0.00 0.00 83 1018.2
20260831110009 71 0 0.0 0.0 0.00 0.00 0.00 83 1018.3
20260831105448 71 0 0.0 0.0 0.00 0.00 0.00 83 1018.2
20260831104948 72 0 0.0 0.0 0.00 0.00 0.00 83 1018.2
20260831104448 72 0 0.0 0.0 0.00 0.00 0.00 83 1018.2
20260831103949 72 0 0.0 0.0 0.00 0.00 0.00 83 1018.1
20260831103449 72 0 0.0 0.0 0.00 0.00 0.00 82 1018.1
20260831103010 72 0 0.0 0.0 0.00 0.00 0.00 82 1018.0
20260831102449 72 0 0.0 0.0 0.00 0.00 0.00 82 1017.9
20260831101949 72 0 0.0 0.0 0.00 0.00 0.00 82 1018.0
20260831101448 72 0 0.0 0.0 0.00 0.00 0.00 82 1018.0
20260831101009 72 0 0.0 0.0 0.00 0.00 0.00 82 1017.9
20260831100448 72 0 0.0 0.0 0.00 0.00 0.00 82 1017.9
20260831095949 72 0 0.0 0.0 0.00 0.00 0.00 82 1017.8
20260831095449 72 0 0.0 0.0 0.00 0.00 0.00 82 1017.8
20260831094949 72 0 0.0 0.0 0.00 0.00 0.00 82 1017.9
20260831094449 72 0 0.0 0.0 0.00 0.00 0.00 82 1017.9
20260831093948 72 0 0.0 0.0 0.00 0.00 0.00 81 1017.9
20260831093448 72 0 0.0 0.0 0.00 0.00 0.00 81 1017.9
20260831092948 73 0 0.0 0.0 0.00 0.00 0.00 81 1017.8
20260831092449 73 221 0.0 1.0 0.00 0.00 0.00 81 1017.8
20260831092010 73 221 0.0 1.0 0.00 0.00 0.00 81 1017.9
20260831091449 73 0 0.0 0.0 0.00 0.00 0.00 80 1017.9
20260831090949 73 0 0.0 0.0 0.00 0.00 0.00 80 1017.8
20260831090510 73 0 0.0 0.0 0.00 0.00 0.00 80 1017.9
20260831085948 73 0 0.0 0.0 0.00 0.00 0.00 80 1017.9
20260831085448 73 0 0.0 0.0 0.00 0.00 0.00 80 1017.8
20260831084949 73 0 0.0 0.0 0.00 0.00 0.00 80 1017.7
20260831084449 73 221 0.0 1.0 0.00 0.00 0.00 80 1017.7
20260831084010 73 221 0.0 1.0 0.00 0.00 0.00 80 1017.7
20260831083449 73 221 0.0 1.0 0.00 0.00 0.00 80 1017.5
20260831082949 73 221 0.0 1.0 0.00 0.00 0.00 81 1017.5
20260831082449 72 0 0.0 0.0 0.00 0.00 0.00 80 1017.4
20260831081949 72 0 0.0 0.0 0.00 0.00 0.00 81 1017.3
20260831081510 72 0 0.0 0.0 0.00 0.00 0.00 81 1017.3
20260831080949 72 0 0.0 0.0 0.00 0.00 0.00 81 1017.2
20260831080449 72 0 0.0 0.0 0.00 0.00 0.00 81 1017.1
20260831075949 72 0 0.0 0.0 0.00 0.00 0.00 81 1017.1
20260831075449 72 0 0.0 0.0 0.00 0.00 0.00 82 1017.2
20260831074949 72 0 0.0 0.0 0.00 0.00 0.00 81 1017.2
20260831074449 72 0 0.0 0.0 0.00 0.00 0.00 81 1017.3
20260831073949 72 0 0.0 0.0 0.00 0.00 0.00 81 1017.3
20260831073448 72 0 0.0 0.0 0.00 0.00 0.00 81 1017.3
20260831072948 72 0 0.0 0.0 0.00 0.00 0.00 80 1017.3
20260831072448 72 0 0.0 0.0 0.00 0.00 0.00 81 1017.3
20260831071949 72 0 0.0 0.0 0.00 0.00 0.00 81 1017.5
20260831071449 72 0 0.0 0.0 0.00 0.00 0.00 81 1017.5
20260831070949 72 0 0.0 0.0 0.00 0.00 0.00 81 1017.6
20260831070449 72 0 0.0 0.0 0.00 0.00 0.00 81 1017.6
20260831065949 72 0 0.0 0.0 0.00 0.00 0.00 81 1017.6
20260831065449 72 0 0.0 0.0 0.00 0.00 0.00 81 1017.6
20260831064949 72 0 0.0 0.0 0.00 0.00 0.00 82 1017.7
20260831064449 72 0 0.0 0.0 0.00 0.00 0.00 82 1017.8
20260831063949 72 0 0.0 0.0 0.00 0.00 0.00 82 1017.9
20260831063449 72 0 0.0 0.0 0.00 0.00 0.00 82 1018.0
20260831062949 72 0 0.0 0.0 0.00 0.00 0.00 82 1018.1
20260831062510 72 0 0.0 0.0 0.00 0.00 0.00 82 1018.2
20260831061949 72 0 0.0 0.0 0.00 0.00 0.00 82 1018.3
20260831061449 72 0 0.0 0.0 0.00 0.00 0.00 82 1018.3
20260831060949 71 0 0.0 0.0 0.00 0.00 0.00 82 1018.3
20260831060448 71 0 0.0 0.0 0.00 0.00 0.00 82 1018.3
20260831055949 71 0 0.0 0.0 0.00 0.00 0.00 82 1018.3
20260831055448 71 0 0.0 0.0 0.00 0.00 0.00 82 1018.3
20260831054949 71 0 0.0 0.0 0.00 0.00 0.00 82 1018.2
20260831054510 71 0 0.0 0.0 0.00 0.00 0.00 82 1018.3
20260831053948 71 0 0.0 0.0 0.00 0.00 0.00 82 1018.2
20260831053510 72 0 0.0 0.0 0.00 0.00 0.00 82 1018.2
20260831052948 72 0 0.0 0.0 0.00 0.00 0.00 82 1018.3
20260831052449 72 0 0.0 0.0 0.00 0.00 0.00 82 1018.3
20260831052010 72 0 0.0 0.0 0.00 0.00 0.00 82 1018.3
20260831051448 72 0 0.0 0.0 0.00 0.00 0.00 82 1018.3
20260831050949 72 0 0.0 0.0 0.00 0.00 0.00 82 1018.2
20260831050449 72 0 0.0 0.0 0.00 0.00 0.00 82 1018.1
20260831045948 72 0 0.0 0.0 0.00 0.00 0.00 81 1018.0
20260831045449 72 0 0.0 0.0 0.00 0.00 0.00 82 1018.1
20260831044948 72 0 0.0 0.0 0.00 0.00 0.00 81 1018.1
20260831044449 72 0 0.0 0.0 0.00 0.00 0.00 81 1018.1
20260831043949 72 0 0.0 0.0 0.00 0.00 0.00 81 1018.2
20260831043448 72 0 0.0 0.0 0.00 0.00 0.00 81 1018.1
20260831042949 72 0 0.0 0.0 0.00 0.00 0.00 81 1018.2
20260831042449 72 0 0.0 0.0 0.00 0.00 0.00 81 1018.2
20260831042010 72 0 0.0 0.0 0.00 0.00 0.00 81 1018.2
20260831041510 72 0 0.0 0.0 0.00 0.00 0.00 81 1018.2
20260831040948 72 0 0.0 0.0 0.00 0.00 0.00 81 1018.2
20260831040449 72 0 0.0 0.0 0.00 0.00 0.00 81 1018.2
20260831035949 72 0 0.0 0.0 0.00 0.00 0.00 81 1018.2
20260831035448 72 0 0.0 0.0 0.00 0.00 0.00 81 1018.3
20260831034949 73 0 0.0 0.0 0.00 0.00 0.00 81 1018.3
20260831034449 73 0 0.0 0.0 0.00 0.00 0.00 81 1018.3
20260831033949 73 0 0.0 0.0 0.00 0.00 0.00 81 1018.3
20260831033448 73 0 0.0 0.0 0.00 0.00 0.00 81 1018.4
20260831033010 73 0 0.0 0.0 0.00 0.00 0.00 81 1018.4
20260831032450 73 0 0.0 0.0 0.00 0.00 0.00 80 1018.3
20260831031949 73 0 0.0 0.0 0.00 0.00 0.00 80 1018.4
20260831031449 73 0 0.0 0.0 0.00 0.00 0.00 80 1018.4
20260831030949 73 0 0.0 0.0 0.00 0.00 0.00 79 1018.2
20260831030449 74 0 0.0 0.0 0.00 0.00 0.00 79 1018.3
20260831025949 74 0 0.0 0.0 0.00 0.00 0.00 79 1018.3
20260831025449 74 0 0.0 0.0 0.00 0.00 0.00 79 1018.2
20260831024949 74 0 0.0 0.0 0.00 0.00 0.00 79 1018.3
20260831024449 74 0 0.0 0.0 0.00 0.00 0.00 78 1018.3
20260831024010 74 0 0.0 0.0 0.00 0.00 0.00 78 1018.3
20260831023449 74 0 0.0 0.0 0.00 0.00 0.00 78 1018.3
20260831022949 74 0 0.0 0.0 0.00 0.00 0.00 78 1018.3
20260831022449 74 0 0.0 0.0 0.00 0.00 0.00 77 1018.2
20260831021949 74 0 0.0 0.0 0.00 0.00 0.00 78 1018.3
20260831021449 75 0 0.0 0.0 0.00 0.00 0.00 77 1018.3
20260831020948 75 0 0.0 0.0 0.00 0.00 0.00 77 1018.2
20260831020449 75 0 0.0 0.0 0.00 0.00 0.00 77 1018.2
20260831015949 75 0 0.0 0.0 0.00 0.00 0.00 76 1018.2
20260831015448 75 0 0.0 0.0 0.00 0.00 0.00 76 1018.2
20260831014949 75 0 0.0 0.0 0.00 0.00 0.00 75 1018.2
20260831014449 75 0 0.0 0.0 0.00 0.00 0.00 76 1018.2
20260831013949 76 0 0.0 0.0 0.00 0.00 0.00 75 1018.2
20260831013510 76 0 0.0 0.0 0.00 0.00 0.00 76 1018.1
20260831012949 76 0 0.0 0.0 0.00 0.00 0.00 75 1018.1
20260831012449 76 0 0.0 0.0 0.00 0.00 0.00 74 1018.2
20260831011949 76 0 0.0 0.0 0.00 0.00 0.00 74 1018.1
20260831011449 76 0 0.0 0.0 0.00 0.00 0.00 74 1018.0
20260831011011 77 0 0.0 0.0 0.00 0.00 0.00 73 1017.9
20260831010449 77 0 0.0 0.0 0.00 0.00 0.00 73 1017.9
20260831005949 77 221 0.0 1.0 0.00 0.00 0.00 73 1017.9
20260831005449 77 221 0.0 1.0 0.00 0.00 0.00 71 1017.8
20260831004949 77 221 0.0 1.0 0.00 0.00 0.00 72 1017.8
20260831004449 77 0 0.0 0.0 0.00 0.00 0.00 71 1017.6
20260831003949 78 0 0.0 0.0 0.00 0.00 0.00 71 1017.5
20260831003449 78 0 0.0 0.0 0.00 0.00 0.00 71 1017.5
20260831002949 78 0 0.0 0.0 0.00 0.00 0.00 70 1017.6
20260831002510 78 0 0.0 0.0 0.00 0.00 0.00 70 1017.6
20260831002011 79 0 0.0 0.0 0.00 0.00 0.00 69 1017.6
20260831001449 79 0 0.0 0.0 0.00 0.00 0.00 68 1017.5
20260831001010 80 0 0.0 0.0 0.00 0.00 0.00 68 1017.5
20260831000449 80 221 0.0 1.0 0.00 0.00 0.00 67 1017.5
20260830235949 80 221 0.0 1.0 0.00 0.00 0.00 66 1017.4
20260830235449 81 221 0.0 1.0 0.00 0.00 0.00 67 1017.5
20260830234949 81 221 0.0 1.0 0.00 0.00 0.00 64 1017.5
20260830234449 82 0 0.0 0.0 0.00 0.00 0.00 64 1017.5
20260830233949 82 221 0.0 1.0 0.00 0.00 0.00 62 1017.5
20260830233449 82 221 0.0 1.0 0.00 0.00 0.00 61 1017.4
20260830233010 83 221 0.0 1.0 0.00 0.00 0.00 61 1017.4
20260830232450 84 221 0.0 1.0 0.00 0.00 0.00 60 1017.3